Погода в Зуевке

Россия / Кировская область     58°24′11″N   51°08′00″E
темп.,
°C
ветер,
м/с
пор.,
м/с
влажн.,
%
обл.,
%
осадки,
мм/ч
давл.,
гПа
погр.,
м
8 мая, сб
сб800:00+10зюз3794100 0.5 1013409
03:00+8зсз3888100 0.8 1016547
06:00+8сз238398 0.0 1018344
09:00+12с125780 0.0 1018938
12:00+16в22386 0.0 10171564
15:00+16ююв233824 0.0 10161729
18:00+14юв36645 0.0 1015622
21:00+10юв29876 0.0 1015190
9 мая, вс
вс900:00+9юв3108964 0.0 1015269
03:00+9юв4119145 0.0 1014296
06:00+11юв41377100 0.0 1014485
09:00+16ююв6135893 0.0 10131047
12:00+20ю71246100 0.0 10132203
15:00+21ююз51045100 0.0 10132590
18:00+16ю2562100 0.0 1014196
21:00+15юв2670100 0.0 1014149
10 мая, пн
пн1000:00+13ююв2877100 0.2 1014237
03:00+12ююз21092100 0.6 1017430
06:00+12зсз2492100 0.4 1018446
09:00+10зсз3686100 0.4 1021573
12:00+8сз4790100 1.6 1024602
15:00+8ссз4780100 1.7 1026993
18:00+10св24665 0.0 1027304
21:00+6з11825 0.0 102911
11 мая, вт
вт1100:00+4ссз11795 0.0 103011
03:00+3ссз11770 0.0 103110
06:00+8сз126249 0.0 1032144
09:00+13з224130 0.0 10321161
12:00+16з343752 0.0 10311656
15:00+15зсз344424 0.0 10301095
18:00+14з2459100 0.0 1030292
21:00+10зюз2379100 0.0 103060
12 мая, ср
ср1200:00+11зюз277997 0.0 1030186
03:00+9зюз299069 0.0 1030201
06:00+12з388295 0.0 1029249
09:00+19зсз365892 0.0 1028871
12:00+21зсз4647100 0.0 10271568
15:00+22зсз454372 0.0 10271748
18:00+20сз365650 0.0 1027207
21:00+14сз227612 0.0 102721